GalileoSat-22

operational
NORAD ID: 43058 Int'l Des: 2017-079 Owner: GSAEU Country: I-EU Constellation: Galileo
MEOCIRCULAR

Über GalileoSat-22

Beschreibung wird geladen...

Live-Position

3D-Globus wird geladen...

Nächste Überflüge

Höhenverlauf

Altitude vs Time

uPlot chart will show altitude changes over time

Zweizeiliger Elementsatz

1 43058U 17079D 25346.62814548 .00000017 00000-0 00000-0 0 9990
2 43058 55.1287 226.6365 0002841 306.3289 53.7237 1.70474063 49839
Epoch: 12. Dez. 2025 • Age: 30 hours

Aktueller Status

Höhe 23230.3 km
Geschwindigkeit 3.67 km/s
Subsatellitenpunkt 44.01°N, 136.35°W
Startdatum 12. Dez. 2017
Alter 8 years
Typ navigation

Technische Details

Klassifizierung Payload
Masse 715.00 kg
Trockenmasse 700.00 kg
Gesamtmasse 715.00 kg
Länge 2.70 m
Durchmesser 1.60 m
Spannweite 14.70 m
Form Box+2 pan
Hersteller OHB
Bus-Typ GalileoSat
Phasenstatus In Orbit
Besitzer/Staat GSAEU/I-EU

Große Konstellationen

Loading constellations...